Time,TemperatureF,DewpointF,PressureIn,WindDirection,WindDirectionDegrees,WindSpeedMPH,WindSpeedGustMPH,Humidity,HourlyPrecipIn,Conditions,Clouds,dailyrainin,SoftwareType,DateUTC
2013-07-28 00:02:00,54.0,51.0,30.00,NNW,340,0.0,0.0,91,0.00,,,0.00,,2013-07-28 05:02:00,
2013-07-28 00:12:00,54.0,52.0,30.00,NNW,340,0.0,0.0,93,0.00,,,0.00,,2013-07-28 05:12:00,
2013-07-28 00:22:00,54.0,52.0,30.00,NNW,340,0.0,0.0,93,0.00,,,0.00,,2013-07-28 05:22:00,
2013-07-28 00:32:00,54.0,52.0,30.00,NNW,340,0.0,0.0,93,0.00,,,0.00,,2013-07-28 05:32:00,
2013-07-28 00:43:00,54.0,52.0,30.00,NNW,340,0.0,0.0,93,0.00,,,0.00,,2013-07-28 05:43:00,
2013-07-28 00:52:00,54.0,52.0,30.00,NNW,340,0.0,0.0,93,0.00,,,0.00,,2013-07-28 05:52:00,
2013-07-28 01:02:00,53.0,51.0,30.00,NNW,340,0.0,0.0,92,0.00,,,0.00,,2013-07-28 06:02:00,
2013-07-28 01:12:00,53.0,51.0,29.99,NNW,340,0.0,0.0,93,0.00,,,0.00,,2013-07-28 06:12:00,
2013-07-28 01:22:00,53.0,51.0,29.99,NNW,340,0.0,0.0,93,0.00,,,0.00,,2013-07-28 06:22:00,
2013-07-28 01:32:00,52.0,50.0,29.99,NNW,340,0.0,0.0,93,0.00,,,0.00,,2013-07-28 06:32:00,
2013-07-28 01:43:00,52.0,50.0,29.99,NNW,340,0.0,0.0,94,0.00,,,0.00,,2013-07-28 06:43:00,
2013-07-28 01:52:00,52.0,50.0,29.99,NNW,340,0.0,0.0,94,0.00,,,0.00,,2013-07-28 06:52:00,
2013-07-28 02:02:00,52.0,50.0,29.99,NNW,340,0.0,0.0,94,0.00,,,0.00,,2013-07-28 07:02:00,
2013-07-28 02:12:00,52.0,50.0,29.99,NNW,340,0.0,0.0,94,0.00,,,0.00,,2013-07-28 07:12:00,
2013-07-28 02:22:00,52.0,50.0,29.99,NNW,340,0.0,0.0,94,0.00,,,0.00,,2013-07-28 07:22:00,
2013-07-28 02:32:00,52.0,51.0,29.99,NNW,340,0.0,1.0,95,0.00,,,0.00,,2013-07-28 07:32:00,
2013-07-28 02:53:00,52.0,51.0,29.99,NNW,340,0.0,0.0,95,0.00,,,0.00,,2013-07-28 07:53:00,
2013-07-28 03:02:00,51.0,49.0,29.99,NNW,340,0.0,0.0,94,0.00,,,0.00,,2013-07-28 08:02:00,
2013-07-28 03:12:00,51.0,50.0,29.99,NNW,340,0.0,0.0,95,0.00,,,0.00,,2013-07-28 08:12:00,
2013-07-28 03:22:00,51.0,50.0,29.99,NNW,340,0.0,0.0,95,0.00,,,0.00,,2013-07-28 08:22:00,
2013-07-28 03:33:00,51.0,50.0,29.99,NNW,340,0.0,0.0,95,0.00,,,0.00,,2013-07-28 08:33:00,
2013-07-28 03:42:00,50.0,49.0,29.99,NNW,340,0.0,0.0,95,0.00,,,0.00,,2013-07-28 08:42:00,
2013-07-28 03:53:00,50.0,49.0,29.99,NNW,340,0.0,0.0,95,0.00,,,0.00,,2013-07-28 08:53:00,
2013-07-28 04:02:00,50.0,49.0,30.00,NNW,340,0.0,0.0,95,0.00,,,0.00,,2013-07-28 09:02:00,
2013-07-28 04:12:00,50.0,49.0,30.00,NNW,340,0.0,0.0,96,0.00,,,0.00,,2013-07-28 09:12:00,
2013-07-28 04:22:00,50.0,49.0,30.00,NNW,340,0.0,0.0,96,0.00,,,0.00,,2013-07-28 09:22:00,
2013-07-28 04:32:00,50.0,49.0,30.01,NNW,340,0.0,0.0,96,0.00,,,0.00,,2013-07-28 09:32:00,
2013-07-28 04:43:00,50.0,49.0,30.01,NNW,340,0.0,0.0,96,0.00,,,0.00,,2013-07-28 09:43:00,
2013-07-28 04:53:00,50.0,49.0,30.01,NNW,340,0.0,0.0,96,0.00,,,0.00,,2013-07-28 09:53:00,
2013-07-28 05:02:00,50.0,49.0,30.01,NNW,340,0.0,0.0,96,0.00,,,0.00,,2013-07-28 10:02:00,
2013-07-28 05:12:00,49.0,48.0,30.01,NNW,340,0.0,0.0,95,0.00,,,0.00,,2013-07-28 10:12:00,
2013-07-28 05:22:00,49.0,48.0,30.01,NNW,340,0.0,0.0,95,0.00,,,0.00,,2013-07-28 10:22:00,
2013-07-28 05:33:00,49.0,48.0,30.02,NNW,340,0.0,0.0,96,0.00,,,0.00,,2013-07-28 10:33:00,
2013-07-28 05:42:00,49.0,48.0,30.02,NNW,340,0.0,0.0,96,0.00,,,0.00,,2013-07-28 10:42:00,
2013-07-28 05:52:00,49.0,48.0,30.02,NNW,340,0.0,0.0,96,0.00,,,0.00,,2013-07-28 10:52:00,
2013-07-28 06:12:00,49.0,48.0,30.02,NNW,340,0.0,0.0,96,0.00,,,0.00,,2013-07-28 11:12:00,
2013-07-28 06:22:00,49.0,48.0,30.02,NNW,340,0.0,0.0,96,0.00,,,0.00,,2013-07-28 11:22:00,
2013-07-28 06:33:00,49.0,48.0,30.02,NNW,340,0.0,0.0,96,0.00,,,0.00,,2013-07-28 11:33:00,
2013-07-28 06:43:00,49.0,48.0,30.03,NNW,340,0.0,0.0,96,0.00,,,0.00,,2013-07-28 11:43:00,
2013-07-28 06:53:00,49.0,48.0,30.03,NNW,340,0.0,0.0,96,0.00,,,0.00,,2013-07-28 11:53:00,
2013-07-28 07:02:00,51.0,50.0,30.02,NNW,340,0.0,0.0,97,0.00,,,0.00,,2013-07-28 12:02:00,
2013-07-28 07:12:00,53.0,52.0,30.03,NNW,340,0.0,1.0,97,0.00,,,0.00,,2013-07-28 12:12:00,
2013-07-28 07:22:00,53.0,52.0,30.03,NNW,340,0.0,1.0,97,0.00,,,0.00,,2013-07-28 12:22:00,
2013-07-28 07:33:00,54.0,53.0,30.03,NNW,340,0.0,1.0,97,0.00,,,0.00,,2013-07-28 12:33:00,
2013-07-28 07:43:00,55.0,54.0,30.03,NNW,340,0.0,1.0,97,0.00,,,0.00,,2013-07-28 12:43:00,
2013-07-28 07:53:00,55.0,54.0,30.03,NNW,340,0.0,1.0,97,0.00,,,0.00,,2013-07-28 12:53:00,
2013-07-28 08:02:00,56.0,55.0,30.04,WSW,257,1.0,3.0,96,0.00,,,0.00,,2013-07-28 13:02:00,
2013-07-28 08:12:00,58.0,56.0,30.04,SW,228,2.0,5.0,94,0.00,,,0.00,,2013-07-28 13:12:00,
2013-07-28 08:22:00,58.0,56.0,30.04,SW,228,2.0,5.0,94,0.00,,,0.00,,2013-07-28 13:22:00,
2013-07-28 08:32:00,59.0,55.0,30.04,SW,224,1.0,6.0,88,0.00,,,0.00,,2013-07-28 13:32:00,
2013-07-28 08:43:00,61.0,56.0,30.05,SW,221,3.0,6.0,83,0.00,,,0.00,,2013-07-28 13:43:00,
2013-07-28 08:52:00,61.0,56.0,30.05,SW,221,3.0,6.0,83,0.00,,,0.00,,2013-07-28 13:52:00,
2013-07-28 09:02:00,62.0,55.0,30.05,SW,226,3.0,8.0,79,0.00,,,0.00,,2013-07-28 14:02:00,
2013-07-28 09:12:00,63.0,56.0,30.06,SW,229,3.0,8.0,77,0.00,,,0.00,,2013-07-28 14:12:00,
2013-07-28 09:23:00,63.0,56.0,30.06,SW,229,3.0,8.0,77,0.00,,,0.00,,2013-07-28 14:23:00,
2013-07-28 09:33:00,65.0,56.0,30.05,WSW,240,2.0,6.0,73,0.00,,,0.00,,2013-07-28 14:33:00,
2013-07-28 09:53:00,66.0,56.0,30.05,SW,221,4.0,9.0,71,0.00,,,0.00,,2013-07-28 14:53:00,
2013-07-28 10:03:00,67.0,54.0,30.05,WNW,298,4.0,8.0,63,0.00,,,0.00,,2013-07-28 15:03:00,
2013-07-28 10:13:00,68.0,55.0,30.05,SW,228,5.0,8.0,64,0.00,,,0.00,,2013-07-28 15:13:00,
2013-07-28 10:22:00,68.0,55.0,30.05,SW,228,5.0,8.0,64,0.00,,,0.00,,2013-07-28 15:22:00,
2013-07-28 10:32:00,68.0,53.0,30.06,West,277,1.0,6.0,59,0.00,,,0.00,,2013-07-28 15:32:00,
2013-07-28 10:43:00,70.0,56.0,30.06,WSW,248,1.0,7.0,61,0.00,,,0.00,,2013-07-28 15:43:00,
2013-07-28 10:53:00,70.0,56.0,30.06,WSW,248,1.0,7.0,61,0.00,,,0.00,,2013-07-28 15:53:00,
2013-07-28 11:02:00,70.0,52.0,30.06,WNW,294,4.0,9.0,53,0.00,,,0.00,,2013-07-28 16:02:00,
2013-07-28 11:12:00,71.0,54.0,30.05,WSW,247,1.0,7.0,55,0.00,,,0.00,,2013-07-28 16:12:00,
2013-07-28 11:22:00,71.0,54.0,30.05,WSW,247,1.0,7.0,55,0.00,,,0.00,,2013-07-28 16:22:00,
2013-07-28 11:33:00,71.0,54.0,30.05,SW,223,3.0,7.0,55,0.00,,,0.00,,2013-07-28 16:33:00,
2013-07-28 11:43:00,71.0,52.0,30.04,SW,233,2.0,6.0,51,0.00,,,0.00,,2013-07-28 16:43:00,
2013-07-28 11:52:00,71.0,52.0,30.04,SW,233,2.0,6.0,51,0.00,,,0.00,,2013-07-28 16:52:00,
2013-07-28 12:02:00,72.0,55.0,30.04,NNW,337,2.0,9.0,56,0.00,,,0.00,,2013-07-28 17:02:00,
2013-07-28 12:12:00,72.0,53.0,30.04,SW,229,4.0,9.0,51,0.00,,,0.00,,2013-07-28 17:12:00,
2013-07-28 12:23:00,72.0,53.0,30.04,SW,229,4.0,9.0,51,0.00,,,0.00,,2013-07-28 17:23:00,
2013-07-28 12:32:00,72.0,56.0,30.04,West,279,4.0,10.0,58,0.00,,,0.00,,2013-07-28 17:32:00,
2013-07-28 12:53:00,73.0,54.0,30.04,SW,227,2.0,7.0,51,0.00,,,0.00,,2013-07-28 17:53:00,
2013-07-28 13:03:00,73.0,55.0,30.04,NNW,336,3.0,10.0,53,0.00,,,0.00,,2013-07-28 18:03:00,
2013-07-28 13:22:00,74.0,55.0,30.03,NNW,331,2.0,7.0,52,0.00,,,0.00,,2013-07-28 18:22:00,
2013-07-28 13:33:00,74.0,53.0,30.03,WNW,290,3.0,10.0,48,0.00,,,0.00,,2013-07-28 18:33:00,
2013-07-28 13:43:00,73.0,54.0,30.03,WSW,252,3.0,9.0,52,0.00,,,0.00,,2013-07-28 18:43:00,
2013-07-28 13:52:00,73.0,54.0,30.03,WSW,252,3.0,9.0,52,0.00,,,0.00,,2013-07-28 18:52:00,
2013-07-28 14:02:00,73.0,52.0,30.03,WSW,244,4.0,9.0,48,0.00,,,0.00,,2013-07-28 19:02:00,
2013-07-28 14:12:00,74.0,55.0,30.02,WSW,241,2.0,8.0,51,0.00,,,0.00,,2013-07-28 19:12:00,
2013-07-28 14:22:00,74.0,55.0,30.02,WSW,241,2.0,8.0,51,0.00,,,0.00,,2013-07-28 19:22:00,
2013-07-28 14:33:00,75.0,56.0,30.02,NNE,20,0.0,10.0,52,0.00,,,0.00,,2013-07-28 19:33:00,
2013-07-28 14:52:00,74.0,54.0,30.02,SSW,192,6.0,11.0,49,0.00,,,0.00,,2013-07-28 19:52:00,
2013-07-28 15:02:00,75.0,56.0,30.02,WNW,284,1.0,9.0,51,0.00,,,0.00,,2013-07-28 20:02:00,
2013-07-28 15:23:00,76.0,54.0,30.02,WSW,244,2.0,8.0,47,0.00,,,0.00,,2013-07-28 20:23:00,
2013-07-28 15:33:00,77.0,56.0,30.02,North,355,3.0,7.0,49,0.00,,,0.00,,2013-07-28 20:33:00,
2013-07-28 15:52:00,75.0,56.0,30.02,WNW,288,0.0,9.0,51,0.00,,,0.00,,2013-07-28 20:52:00,
2013-07-28 16:03:00,76.0,55.0,30.02,SW,230,5.0,9.0,49,0.00,,,0.00,,2013-07-28 21:03:00,
2013-07-28 16:12:00,75.0,55.0,30.02,WNW,291,0.0,7.0,50,0.00,,,0.00,,2013-07-28 21:12:00,
2013-07-28 16:22:00,75.0,55.0,30.02,WNW,291,0.0,7.0,50,0.00,,,0.00,,2013-07-28 21:22:00,
2013-07-28 16:33:00,76.0,57.0,30.02,SW,231,4.0,9.0,51,0.00,,,0.00,,2013-07-28 21:33:00,
2013-07-28 16:44:00,76.0,57.0,30.01,SW,230,2.0,10.0,52,0.00,,,0.00,,2013-07-28 21:44:00,
2013-07-28 16:52:00,76.0,57.0,30.01,SW,230,2.0,10.0,52,0.00,,,0.00,,2013-07-28 21:52:00,
2013-07-28 17:02:00,77.0,55.0,30.02,West,276,2.0,7.0,47,0.00,,,0.00,,2013-07-28 22:02:00,
2013-07-28 17:32:00,76.0,57.0,30.02,WSW,254,2.0,2.0,52,0.00,,,0.00,,2013-07-28 22:32:00,
2013-07-28 17:43:00,76.0,56.0,30.02,SW,232,2.0,8.0,50,0.00,,,0.00,,2013-07-28 22:43:00,
2013-07-28 17:52:00,76.0,56.0,30.02,SW,232,2.0,8.0,50,0.00,,,0.00,,2013-07-28 22:52:00,
2013-07-28 18:03:00,77.0,56.0,30.02,WSW,242,3.0,7.0,49,0.00,,,0.00,,2013-07-28 23:03:00,
2013-07-28 18:12:00,76.0,57.0,30.02,WNW,297,1.0,6.0,51,0.00,,,0.00,,2013-07-28 23:12:00,
2013-07-28 18:22:00,76.0,57.0,30.02,WNW,297,1.0,6.0,51,0.00,,,0.00,,2013-07-28 23:22:00,
2013-07-28 18:32:00,77.0,56.0,30.02,WSW,240,0.0,7.0,49,0.00,,,0.00,,2013-07-28 23:32:00,
2013-07-28 18:43:00,76.0,55.0,30.02,SW,227,1.0,7.0,49,0.00,,,0.00,,2013-07-28 23:43:00,
2013-07-28 18:53:00,76.0,55.0,30.02,SW,227,1.0,7.0,49,0.00,,,0.00,,2013-07-28 23:53:00,
2013-07-28 19:03:00,75.0,56.0,30.03,WSW,241,1.0,6.0,51,0.00,,,0.00,,2013-07-29 00:03:00,
2013-07-28 19:22:00,74.0,55.0,30.03,West,279,0.0,4.0,52,0.00,,,0.00,,2013-07-29 00:22:00,
2013-07-28 19:32:00,74.0,59.0,30.03,West,275,0.0,2.0,59,0.00,,,0.00,,2013-07-29 00:32:00,
2013-07-28 19:52:00,72.0,59.0,30.03,West,275,0.0,0.0,64,0.00,,,0.00,,2013-07-29 00:52:00,
2013-07-28 20:02:00,71.0,61.0,30.04,West,275,0.0,0.0,71,0.00,,,0.00,,2013-07-29 01:02:00,
2013-07-28 20:28:00,69.0,61.0,30.04,West,275,0.0,0.0,75,0.00,,,0.00,,2013-07-29 01:28:00,
2013-07-28 20:35:00,69.0,61.0,30.04,West,275,0.0,0.0,75,0.00,,,0.00,,2013-07-29 01:35:00,
2013-07-28 20:57:00,65.0,60.0,30.04,West,275,0.0,0.0,83,0.00,,,0.00,,2013-07-29 01:57:00,
2013-07-28 21:05:00,64.0,59.0,30.05,West,275,0.0,0.0,85,0.00,,,0.00,,2013-07-29 02:05:00,
2013-07-28 21:14:00,63.0,59.0,30.05,West,275,0.0,0.0,87,0.00,,,0.00,,2013-07-29 02:14:00,
2013-07-28 21:25:00,63.0,59.0,30.05,West,275,0.0,0.0,87,0.00,,,0.00,,2013-07-29 02:25:00,
2013-07-28 21:36:00,62.0,58.0,30.05,West,275,0.0,0.0,88,0.00,,,0.00,,2013-07-29 02:36:00,
2013-07-28 22:03:00,61.0,58.0,30.06,West,275,0.0,0.0,89,0.00,,,0.00,,2013-07-29 03:03:00,
2013-07-28 22:16:00,60.0,57.0,30.06,West,275,0.0,0.0,90,0.00,,,0.00,,2013-07-29 03:16:00,
2013-07-28 22:24:00,60.0,57.0,30.06,West,275,0.0,0.0,90,0.00,,,0.00,,2013-07-29 03:24:00,
2013-07-28 22:36:00,60.0,57.0,30.07,West,275,0.0,0.0,91,0.00,,,0.00,,2013-07-29 03:36:00,
2013-07-28 22:48:00,59.0,56.0,30.07,West,275,0.0,0.0,91,0.00,,,0.00,,2013-07-29 03:48:00,
2013-07-28 22:56:00,59.0,56.0,30.07,West,275,0.0,0.0,91,0.00,,,0.00,,2013-07-29 03:56:00,
2013-07-28 23:02:00,59.0,57.0,30.07,West,275,0.0,0.0,92,0.00,,,0.00,,2013-07-29 04:02:00,
2013-07-28 23:12:00,59.0,57.0,30.07,West,275,0.0,0.0,93,0.00,,,0.00,,2013-07-29 04:12:00,
2013-07-28 23:22:00,59.0,57.0,30.07,West,275,0.0,0.0,93,0.00,,,0.00,,2013-07-29 04:22:00,
2013-07-28 23:32:00,58.0,56.0,30.07,West,275,0.0,2.0,93,0.00,,,0.00,,2013-07-29 04:32:00,
2013-07-28 23:53:00,58.0,56.0,30.06,West,275,0.0,2.0,93,0.00,,,0.00,,2013-07-29 04:53:00,